Location: Izdebno
(52.6670°N, 16.2170°E)
Time: 10:35:45
(UTC+01:00)

deb Explorer IX - Visible Passes

Search period start: 31 January 2023 00:00
Search period end: 10 February 2023 00:00
Orbit: 534 x 1049 km, 38.8° (Epoch: 30 January)

Date Brightness Start Highest point End Pass type
(mag) Time Alt. Az. Time Alt. Az. Time Alt. Az.
31 Jan ? 06:08:42 10° S 06:09:01 10° SSE 06:09:21 10° SSE visible
02 Feb ? 06:47:44 10° SSW 06:49:06 11° S 06:50:29 10° SSE visible
03 Feb ? 06:15:14 10° SSW 06:16:40 12° S 06:18:04 10° SSE visible
04 Feb ? 05:42:41 10° SSW 05:44:12 12° S 05:45:41 10° SSE visible
05 Feb ? 05:11:19 12° S 05:11:43 12° S 05:13:19 10° SSE visible
06 Feb ? 04:40:21 11° SSE 04:40:21 11° SSE 04:40:57 10° SSE visible
08 Feb ? 05:19:04 10° SSW 05:19:04 10° SSW 05:19:16 10° SSW visible
